Time,TemperatureF,DewpointF,PressureIn,WindDirection,WindDirectionDegrees,WindSpeedMPH,WindSpeedGustMPH,Humidity,HourlyPrecipIn,Conditions,Clouds,dailyrainin,SoftwareType,DateUTC
2013-08-11 00:02:00,66.0,63.0,30.10,South,181,0.0,0.0,90,0.00,,,0.01,,2013-08-11 05:02:00,
2013-08-11 00:16:00,66.0,63.0,30.10,South,181,0.0,0.0,91,0.00,,,0.01,,2013-08-11 05:16:00,
2013-08-11 00:23:00,66.0,63.0,30.10,South,181,0.0,0.0,91,0.00,,,0.01,,2013-08-11 05:23:00,
2013-08-11 00:35:00,66.0,63.0,30.10,South,181,0.0,0.0,91,0.00,,,0.01,,2013-08-11 05:35:00,
2013-08-11 00:45:00,65.0,62.0,30.10,South,181,0.0,0.0,91,0.00,,,0.01,,2013-08-11 05:45:00,
2013-08-11 00:53:00,65.0,62.0,30.10,South,181,0.0,0.0,91,0.00,,,0.01,,2013-08-11 05:53:00,
2013-08-11 01:03:00,65.0,62.0,30.10,South,181,0.0,0.0,91,0.00,,,0.01,,2013-08-11 06:03:00,
2013-08-11 01:16:00,65.0,62.0,30.11,South,181,0.0,0.0,91,0.00,,,0.01,,2013-08-11 06:16:00,
2013-08-11 01:34:00,65.0,63.0,30.11,South,181,0.0,0.0,92,0.00,,,0.01,,2013-08-11 06:34:00,
2013-08-11 01:48:00,64.0,62.0,30.11,South,181,0.0,0.0,92,0.00,,,0.01,,2013-08-11 06:48:00,
2013-08-11 02:14:00,64.0,62.0,30.12,South,181,0.0,0.0,92,0.00,,,0.01,,2013-08-11 07:14:00,
2013-08-11 02:36:00,64.0,62.0,30.12,South,181,0.0,0.0,92,0.00,,,0.01,,2013-08-11 07:36:00,
2013-08-11 02:44:00,64.0,62.0,30.11,South,181,0.0,0.0,92,0.00,,,0.01,,2013-08-11 07:44:00,
2013-08-11 02:53:00,63.0,61.0,30.11,South,181,0.0,0.0,92,0.00,,,0.01,,2013-08-11 07:53:00,
2013-08-11 03:06:00,63.0,61.0,30.11,South,181,0.0,0.0,92,0.00,,,0.01,,2013-08-11 08:06:00,
2013-08-11 03:16:00,63.0,61.0,30.12,South,181,0.0,0.0,92,0.00,,,0.01,,2013-08-11 08:16:00,
2013-08-11 03:25:00,63.0,61.0,30.12,South,181,0.0,0.0,92,0.00,,,0.01,,2013-08-11 08:25:00,
2013-08-11 03:34:00,63.0,61.0,30.12,South,181,0.0,0.0,92,0.00,,,0.01,,2013-08-11 08:34:00,
2013-08-11 03:45:00,63.0,61.0,30.12,South,181,0.0,0.0,92,0.00,,,0.01,,2013-08-11 08:45:00,
2013-08-11 03:54:00,62.0,60.0,30.11,South,181,0.0,0.0,93,0.00,,,0.01,,2013-08-11 08:54:00,
2013-08-11 04:04:00,62.0,60.0,30.11,South,181,0.0,0.0,93,0.00,,,0.01,,2013-08-11 09:04:00,
2013-08-11 04:25:00,62.0,60.0,30.10,South,181,0.0,0.0,94,0.00,,,0.01,,2013-08-11 09:25:00,
2013-08-11 04:34:00,62.0,60.0,30.10,South,181,0.0,0.0,94,0.00,,,0.01,,2013-08-11 09:34:00,
2013-08-11 04:43:00,62.0,60.0,30.11,South,181,0.0,0.0,94,0.00,,,0.01,,2013-08-11 09:43:00,
2013-08-11 05:13:00,62.0,60.0,30.10,South,181,0.0,0.0,94,0.00,,,0.01,,2013-08-11 10:13:00,
2013-08-11 05:25:00,62.0,60.0,30.10,South,181,0.0,0.0,94,0.00,,,0.01,,2013-08-11 10:25:00,
2013-08-11 05:33:00,62.0,60.0,30.10,South,181,0.0,0.0,94,0.00,,,0.01,,2013-08-11 10:33:00,
2013-08-11 05:54:00,61.0,59.0,30.10,South,181,0.0,0.0,94,0.00,,,0.01,,2013-08-11 10:54:00,
2013-08-11 06:06:00,61.0,59.0,30.10,South,181,0.0,0.0,94,0.00,,,0.01,,2013-08-11 11:06:00,
2013-08-11 06:12:00,61.0,60.0,30.10,South,181,0.0,0.0,95,0.00,,,0.01,,2013-08-11 11:12:00,
2013-08-11 06:22:00,61.0,60.0,30.10,South,181,0.0,0.0,95,0.00,,,0.01,,2013-08-11 11:22:00,
2013-08-11 06:36:00,61.0,60.0,30.10,South,181,0.0,0.0,95,0.00,,,0.01,,2013-08-11 11:36:00,
2013-08-11 06:47:00,61.0,60.0,30.10,South,181,0.0,0.0,95,0.00,,,0.01,,2013-08-11 11:47:00,
2013-08-11 06:56:00,61.0,60.0,30.11,South,181,0.0,0.0,95,0.00,,,0.01,,2013-08-11 11:56:00,
2013-08-11 07:05:00,61.0,60.0,30.11,South,181,0.0,0.0,95,0.00,,,0.01,,2013-08-11 12:05:00,
2013-08-11 07:14:00,61.0,60.0,30.11,South,181,0.0,0.0,95,0.00,,,0.01,,2013-08-11 12:14:00,
2013-08-11 07:26:00,61.0,60.0,30.11,South,181,0.0,0.0,96,0.00,,,0.01,,2013-08-11 12:26:00,
2013-08-11 07:45:00,61.0,60.0,30.11,South,181,0.0,0.0,96,0.00,,,0.01,,2013-08-11 12:45:00,
2013-08-11 07:53:00,62.0,61.0,30.11,South,181,0.0,0.0,96,0.00,,,0.01,,2013-08-11 12:53:00,
2013-08-11 08:15:00,62.0,61.0,30.11,South,181,0.0,0.0,96,0.00,,,0.01,,2013-08-11 13:15:00,
2013-08-11 08:24:00,64.0,63.0,30.11,South,181,0.0,0.0,96,0.00,,,0.01,,2013-08-11 13:24:00,
2013-08-11 08:44:00,65.0,64.0,30.11,South,181,0.0,0.0,96,0.00,,,0.01,,2013-08-11 13:44:00,
2013-08-11 08:55:00,67.0,64.0,30.10,South,181,0.0,0.0,91,0.00,,,0.01,,2013-08-11 13:55:00,
2013-08-11 09:02:00,67.0,64.0,30.10,South,181,0.0,0.0,91,0.00,,,0.01,,2013-08-11 14:02:00,
2013-08-11 09:15:00,69.0,63.0,30.09,South,181,0.0,0.0,81,0.00,,,0.01,,2013-08-11 14:15:00,
2013-08-11 09:23:00,71.0,63.0,30.09,South,181,2.0,2.0,75,0.00,,,0.01,,2013-08-11 14:23:00,
2013-08-11 09:34:00,71.0,63.0,30.09,South,181,2.0,2.0,75,0.00,,,0.01,,2013-08-11 14:34:00,
2013-08-11 09:45:00,72.0,62.0,30.09,South,181,0.0,0.0,72,0.00,,,0.01,,2013-08-11 14:45:00,
2013-08-11 09:55:00,73.0,61.0,30.09,South,183,4.0,4.0,66,0.00,,,0.01,,2013-08-11 14:55:00,
2013-08-11 10:04:00,73.0,61.0,30.09,South,183,4.0,4.0,66,0.00,,,0.01,,2013-08-11 15:04:00,
2013-08-11 10:14:00,74.0,61.0,30.10,SSE,164,0.0,0.0,64,0.01,,,0.02,,2013-08-11 15:14:00,
2013-08-11 10:23:00,75.0,62.0,30.10,SSE,165,0.0,0.0,65,0.01,,,0.02,,2013-08-11 15:23:00,
2013-08-11 10:35:00,75.0,62.0,30.10,SSE,165,0.0,0.0,65,0.01,,,0.02,,2013-08-11 15:35:00,
2013-08-11 10:47:00,76.0,64.0,30.10,South,185,4.0,4.0,67,0.01,,,0.02,,2013-08-11 15:47:00,
2013-08-11 11:05:00,77.0,63.0,30.10,South,185,0.0,0.0,62,0.01,,,0.02,,2013-08-11 16:05:00,
2013-08-11 11:12:00,77.0,63.0,30.10,South,185,0.0,0.0,63,0.01,,,0.02,,2013-08-11 16:12:00,
2013-08-11 11:25:00,78.0,65.0,30.10,South,184,0.0,0.0,64,0.00,,,0.02,,2013-08-11 16:25:00,
2013-08-11 11:36:00,78.0,65.0,30.10,South,184,0.0,0.0,64,0.00,,,0.02,,2013-08-11 16:36:00,
2013-08-11 11:44:00,79.0,65.0,30.10,South,185,0.0,0.0,63,0.00,,,0.02,,2013-08-11 16:44:00,
2013-08-11 11:55:00,80.0,66.0,30.10,South,185,0.0,0.0,63,0.00,,,0.01,,2013-08-11 16:55:00,
2013-08-11 12:06:00,80.0,66.0,30.10,South,185,0.0,0.0,63,0.00,,,0.01,,2013-08-11 17:06:00,
2013-08-11 12:12:00,80.0,67.0,30.09,South,172,3.0,3.0,65,0.00,,,0.01,,2013-08-11 17:12:00,
2013-08-11 12:24:00,80.0,66.0,30.08,South,187,3.0,3.0,62,0.00,,,0.01,,2013-08-11 17:24:00,
2013-08-11 12:33:00,80.0,66.0,30.08,South,187,3.0,3.0,62,0.00,,,0.01,,2013-08-11 17:33:00,
2013-08-11 12:44:00,81.0,66.0,30.08,South,190,0.0,0.0,61,0.00,,,0.01,,2013-08-11 17:44:00,
2013-08-11 12:54:00,81.0,67.0,30.08,South,189,0.0,0.0,62,0.00,,,0.01,,2013-08-11 17:54:00,
2013-08-11 13:05:00,81.0,67.0,30.08,South,189,0.0,0.0,62,0.00,,,0.01,,2013-08-11 18:05:00,
2013-08-11 13:17:00,82.0,66.0,30.07,SSW,194,4.0,4.0,59,0.00,,,0.01,,2013-08-11 18:17:00,
2013-08-11 13:37:00,82.0,64.0,30.07,SSW,194,0.0,0.0,55,0.00,,,0.01,,2013-08-11 18:37:00,
2013-08-11 13:53:00,83.0,68.0,30.07,South,175,5.0,5.0,60,0.00,,,0.01,,2013-08-11 18:53:00,
2013-08-11 14:04:00,83.0,68.0,30.07,South,175,5.0,5.0,60,0.00,,,0.01,,2013-08-11 19:04:00,
2013-08-11 14:14:00,82.0,67.0,30.07,South,176,3.0,3.0,60,0.00,,,0.01,,2013-08-11 19:14:00,
2013-08-11 14:23:00,83.0,67.0,30.07,South,177,6.0,6.0,58,0.00,,,0.01,,2013-08-11 19:23:00,
2013-08-11 14:32:00,83.0,67.0,30.07,South,177,6.0,6.0,58,0.00,,,0.01,,2013-08-11 19:32:00,
2013-08-11 15:03:00,84.0,66.0,30.06,South,180,4.0,4.0,55,0.00,,,0.01,,2013-08-11 20:03:00,
2013-08-11 15:17:00,84.0,67.0,30.06,South,185,4.0,4.0,56,0.00,,,0.01,,2013-08-11 20:17:00,
2013-08-11 15:36:00,85.0,67.0,30.06,South,184,4.0,4.0,55,0.00,,,0.01,,2013-08-11 20:36:00,
2013-08-11 15:46:00,85.0,66.0,30.05,SSW,192,0.0,0.0,54,0.00,,,0.01,,2013-08-11 20:46:00,
2013-08-11 15:53:00,85.0,67.0,30.05,SSW,192,2.0,2.0,55,0.00,,,0.01,,2013-08-11 20:53:00,
2013-08-11 16:04:00,85.0,67.0,30.05,SSW,192,2.0,2.0,55,0.00,,,0.01,,2013-08-11 21:04:00,
2013-08-11 16:12:00,84.0,66.0,30.04,South,188,1.0,1.0,54,0.00,,,0.01,,2013-08-11 21:12:00,
2013-08-11 16:24:00,83.0,67.0,30.04,South,188,0.0,0.0,58,0.00,,,0.01,,2013-08-11 21:24:00,
2013-08-11 16:33:00,83.0,67.0,30.04,South,188,0.0,0.0,58,0.00,,,0.01,,2013-08-11 21:33:00,
2013-08-11 16:46:00,85.0,68.0,30.03,South,180,0.0,0.0,56,0.00,,,0.01,,2013-08-11 21:46:00,
2013-08-11 16:53:00,85.0,66.0,30.03,SSE,165,4.0,4.0,53,0.00,,,0.01,,2013-08-11 21:53:00,
2013-08-11 17:13:00,84.0,66.0,30.03,SSE,166,1.0,1.0,54,0.00,,,0.01,,2013-08-11 22:13:00,
2013-08-11 17:24:00,84.0,65.0,30.02,SSE,166,0.0,0.0,53,0.00,,,0.01,,2013-08-11 22:24:00,
2013-08-11 17:35:00,84.0,65.0,30.02,SSE,166,0.0,0.0,53,0.00,,,0.01,,2013-08-11 22:35:00,
2013-08-11 17:46:00,85.0,67.0,30.02,SSE,166,3.0,3.0,55,0.00,,,0.01,,2013-08-11 22:46:00,
2013-08-11 17:53:00,85.0,65.0,30.01,South,188,4.0,4.0,52,0.00,,,0.01,,2013-08-11 22:53:00,
2013-08-11 18:03:00,85.0,65.0,30.01,South,188,4.0,4.0,52,0.00,,,0.01,,2013-08-11 23:03:00,
2013-08-11 18:15:00,84.0,66.0,30.01,South,174,0.0,0.0,54,0.00,,,0.01,,2013-08-11 23:15:00,
2013-08-11 18:25:00,84.0,68.0,30.01,South,174,0.0,0.0,58,0.00,,,0.01,,2013-08-11 23:25:00,
2013-08-11 18:33:00,84.0,68.0,30.01,South,174,0.0,0.0,58,0.00,,,0.01,,2013-08-11 23:33:00,
2013-08-11 18:46:00,84.0,68.0,30.01,South,174,0.0,0.0,59,0.00,,,0.01,,2013-08-11 23:46:00,
2013-08-11 19:04:00,83.0,67.0,30.00,South,174,0.0,0.0,59,0.00,,,0.01,,2013-08-12 00:04:00,
2013-08-11 19:16:00,82.0,68.0,29.99,South,174,0.0,0.0,62,0.00,,,0.01,,2013-08-12 00:16:00,
2013-08-11 19:23:00,82.0,67.0,29.99,South,174,0.0,0.0,61,0.00,,,0.01,,2013-08-12 00:23:00,
2013-08-11 19:53:00,81.0,68.0,29.98,South,174,0.0,0.0,65,0.00,,,0.01,,2013-08-12 00:53:00,
2013-08-11 20:05:00,81.0,68.0,29.98,South,174,0.0,0.0,65,0.00,,,0.01,,2013-08-12 01:05:00,
2013-08-11 20:13:00,80.0,68.0,29.99,South,174,0.0,0.0,67,0.00,,,0.01,,2013-08-12 01:13:00,
2013-08-11 20:23:00,79.0,68.0,29.99,South,174,0.0,0.0,69,0.00,,,0.01,,2013-08-12 01:23:00,
2013-08-11 20:34:00,79.0,68.0,29.99,South,174,0.0,0.0,69,0.00,,,0.01,,2013-08-12 01:34:00,
2013-08-11 20:45:00,78.0,69.0,29.99,South,174,0.0,0.0,73,0.00,,,0.01,,2013-08-12 01:45:00,
2013-08-11 21:13:00,76.0,68.0,29.99,South,174,0.0,0.0,77,0.00,,,0.01,,2013-08-12 02:13:00,
2013-08-11 21:23:00,75.0,68.0,30.00,South,174,0.0,0.0,80,0.00,,,0.01,,2013-08-12 02:23:00,
2013-08-11 21:35:00,75.0,68.0,30.00,South,174,0.0,0.0,80,0.00,,,0.01,,2013-08-12 02:35:00,
2013-08-11 21:46:00,74.0,68.0,30.00,South,174,0.0,0.0,82,0.00,,,0.01,,2013-08-12 02:46:00,
2013-08-11 21:53:00,73.0,68.0,30.00,South,174,0.0,0.0,83,0.00,,,0.01,,2013-08-12 02:53:00,
2013-08-11 22:05:00,73.0,68.0,30.00,South,174,0.0,0.0,83,0.00,,,0.01,,2013-08-12 03:05:00,
2013-08-11 22:14:00,73.0,68.0,30.00,South,174,0.0,0.0,84,0.00,,,0.01,,2013-08-12 03:14:00,
2013-08-11 22:25:00,73.0,69.0,30.01,South,174,0.0,0.0,86,0.00,,,0.01,,2013-08-12 03:25:00,
2013-08-11 22:36:00,73.0,69.0,30.01,South,174,0.0,0.0,86,0.00,,,0.01,,2013-08-12 03:36:00,
2013-08-11 22:45:00,72.0,68.0,30.01,South,174,0.0,0.0,87,0.00,,,0.01,,2013-08-12 03:45:00,
2013-08-11 23:02:00,72.0,68.0,30.01,South,174,0.0,0.0,88,0.00,,,0.01,,2013-08-12 04:02:00,
2013-08-11 23:12:00,72.0,68.0,30.01,South,174,0.0,0.0,88,0.00,,,0.01,,2013-08-12 04:12:00,
2013-08-11 23:22:00,72.0,69.0,30.02,South,174,0.0,0.0,89,0.00,,,0.01,,2013-08-12 04:22:00,
2013-08-11 23:33:00,72.0,69.0,30.02,South,174,0.0,0.0,89,0.00,,,0.01,,2013-08-12 04:33:00,
2013-08-11 23:43:00,71.0,68.0,30.02,South,174,0.0,0.0,90,0.00,,,0.01,,2013-08-12 04:43:00,
2013-08-11 23:52:00,71.0,68.0,30.02,South,174,0.0,0.0,90,0.00,,,0.01,,2013-08-12 04:52:00,